Change the Weather History Date:

Tuesday, February 12, 2013

  Actual Average Record
Temperature  
Mean Temperature 32 °F -  
Max Temperature 33 °F - - ()
Min Temperature 30 °F - - ()
Degree Days  
Heating Degree Days 34    
Moisture  
Dew Point 28 °F    
Average Humidity 85    
Maximum Humidity 93    
Minimum Humidity 80    
Precipitation  
Precipitation 0.00 in - - ()
Sea Level Pressure  
Sea Level Pressure 29.99 in    
Wind  
Wind Speed 8 mph ()    
Max Wind Speed 12 mph    
Max Gust Speed -    
Visibility 6.0 miles    
Events Snow    
T = Trace of Precipitation, MM = Missing Value Source: Averaged Metar Reports

Daily Weather History Graph

Daily Weather History Graph

Search for Another Location

Airport or City:

Trip Planner

Search our weather history database for the weather conditions in past years. The results will help you decide how hot, cold, wet, or windy it might be!

Date:

Astronomy

Feb. 12, 2013 Rise Set
Actual Time 7:39 AM GMT 5:10 PM GMT
Civil Twilight 7:00 AM GMT 5:48 PM GMT
Nautical Twilight 6:18 AM GMT 6:31 PM GMT
Astronomical Twilight 5:36 AM GMT 7:13 PM GMT
Moon 7:56 AM GMT (2/12) 8:34 PM GMT (2/12)
Length of Visible Light 10h 47m
Length of Day
9h 31m
Waxing Crescent, 6% of the Moon is Illuminated
Feb 12
Waxing Crescent
Feb 17
First Quarter
Feb 25
Full
Mar 4
Last Quarter
Mar 11
New

Hourly Weather History & Observations

Time (GMT) Temp. Windchill Dew Point Humidity Pressure Visibility Wind Dir Wind Speed Gust Speed Precip Events Conditions
12:50 AM 32.0 °F 23.0 °F 28.4 °F 87% 29.89 in 6.2 mi East 11.5 mph - N/A   Overcast
1:50 AM 32.0 °F 23.6 °F 28.4 °F 87% 29.89 in 6.2 mi East 10.4 mph - N/A   Overcast
2:50 AM 32.0 °F 23.0 °F 28.4 °F 87% 29.92 in 6.2 mi East 11.5 mph - N/A   Mostly Cloudy
3:50 AM 32.0 °F 23.0 °F 26.6 °F 80% 29.92 in 6.2 mi East 11.5 mph - N/A   Overcast
4:50 AM 32.0 °F 23.6 °F 28.4 °F 87% 29.92 in 6.2 mi East 10.4 mph - N/A   Overcast
5:50 AM 32.0 °F 24.2 °F 26.6 °F 80% 29.95 in 6.2 mi East 9.2 mph - N/A   Overcast
6:50 AM 32.0 °F 24.2 °F 26.6 °F 80% 29.95 in 6.2 mi East 9.2 mph - N/A   Overcast
7:50 AM 32.0 °F 24.8 °F 28.4 °F 87% 29.98 in 6.2 mi East 8.1 mph - N/A   Mostly Cloudy
8:50 AM 32.0 °F 23.6 °F 28.4 °F 87% 29.98 in 6.2 mi East 10.4 mph - N/A   Mostly Cloudy
9:50 AM 33.8 °F 27.0 °F 28.4 °F 81% 30.01 in 6.2 mi ESE 8.1 mph - N/A   Overcast
10:50 AM 33.8 °F 27.0 °F 28.4 °F 81% 30.01 in 6.2 mi East 8.1 mph - N/A   Mostly Cloudy
11:50 AM 33.8 °F 26.4 °F 28.4 °F 81% 30.01 in 6.2 mi SE 9.2 mph - N/A   Mostly Cloudy
12:50 PM 33.8 °F 26.4 °F 28.4 °F 81% 30.01 in 6.2 mi ESE 9.2 mph - N/A Snow Light Snow Showers
1:50 PM 33.8 °F 27.0 °F 28.4 °F 81% 30.01 in 6.2 mi ESE 8.1 mph - N/A   Overcast
2:50 PM 33.8 °F 27.0 °F 28.4 °F 81% 30.01 in 6.2 mi ESE 8.1 mph - N/A   Overcast
3:50 PM 33.8 °F 27.0 °F 28.4 °F 81% 30.01 in 6.2 mi ESE 8.1 mph - N/A   Mostly Cloudy
4:50 PM 32.0 °F 25.6 °F 28.4 °F 87% 30.04 in 6.2 mi ESE 6.9 mph - N/A   Mostly Cloudy
5:50 PM 32.0 °F 26.4 °F 28.4 °F 87% 30.04 in 6.2 mi ESE 5.8 mph - N/A   Overcast
6:50 PM 32.0 °F 27.5 °F 28.4 °F 87% 30.04 in 5.6 mi ESE 4.6 mph - N/A   Haze
7:50 PM 32.0 °F 27.5 °F 28.4 °F 87% 30.04 in 5.6 mi East 4.6 mph - N/A   Haze
8:50 PM 30.2 °F 24.3 °F 28.4 °F 93% 30.06 in 5.6 mi ESE 5.8 mph - N/A   Haze
9:50 PM 30.2 °F 25.4 °F 28.4 °F 93% 30.06 in 5.6 mi ESE 4.6 mph - N/A   Haze
10:50 PM 30.2 °F 21.9 °F 28.4 °F 93% 30.06 in 5.6 mi SSE 9.2 mph - N/A   Haze
11:50 PM 30.2 °F 21.3 °F 26.6 °F 86% 30.06 in 5.6 mi SSE 10.4 mph - N/A   Haze